Location: Mainz-Finthen
(49.9906°N, 8.1713°E)
Time: 22:04:04
(UTC+00:00)

STRAND 1 - Visible Passes

Search period start: 05 December 2021 00:00
Search period end: 15 December 2021 00:00
Orbit: 767 x 781 km, 98.4° (Epoch: 04 December)

Date Brightness Start Highest point End Pass type
(mag) Time Alt. Az. Time Alt. Az. Time Alt. Az.
05 Dec ? 03:42:47 10° E 03:45:08 13° NE 03:47:28 10° NNE visible
05 Dec ? 05:18:20 10° SSE 05:23:25 68° ENE 05:28:31 10° N visible
06 Dec ? 04:44:48 10° SE 04:49:28 37° ENE 04:54:09 10° N visible
06 Dec ? 06:23:58 10° SSW 06:28:40 36° W 06:33:23 10° NNW visible
07 Dec ? 04:11:52 10° ESE 04:15:41 22° ENE 04:19:29 10° N visible
07 Dec ? 05:49:18 10° S 05:54:24 69° WSW 05:59:31 10° NNW visible
08 Dec ? 03:39:55 10° ENE 03:42:03 13° NE 03:44:10 10° NNE visible
08 Dec ? 05:15:14 10° SSE 05:20:18 65° ENE 05:25:22 10° N visible
09 Dec ? 04:41:45 10° SE 04:46:21 35° ENE 04:50:59 10° N visible
09 Dec ? 06:20:46 10° SSW 06:25:30 38° W 06:30:17 10° NNW visible
10 Dec ? 04:08:53 10° ESE 04:12:35 21° ENE 04:16:17 10° N visible
10 Dec ? 05:46:09 10° S 05:51:16 73° WSW 05:56:23 10° NNW visible
11 Dec ? 03:37:06 10° ENE 03:38:58 12° NE 03:40:50 10° NNE visible
11 Dec ? 05:12:08 10° SSE 05:17:10 61° ENE 05:22:13 10° N visible
12 Dec ? 04:38:42 10° SE 04:43:15 34° ENE 04:47:48 10° N visible
12 Dec ? 06:17:34 10° SSW 06:22:21 40° W 06:27:10 10° NNW visible
13 Dec ? 04:05:54 10° ESE 04:09:29 20° ENE 04:13:04 10° NNE visible
13 Dec ? 05:43:00 10° S 05:48:07 77° WSW 05:53:15 10° NNW visible
14 Dec ? 03:34:19 10° ENE 03:35:53 11° NE 03:37:27 10° NNE visible
14 Dec ? 05:09:03 10° SSE 05:14:03 58° ENE 05:19:04 10° N visible
